OZ1IEP-5 Weather Reports


Display with metric or nautical units.
time (UTC)temp
F
wind
direction
speed
MPH
gust
MPH
rain 1hr
in
rain 24hr
in
rain mn
in
humidity
%
barometer
mb
20260902212006 59 237 1.0 8.0 0.00 0.17 0.16 93 1012.8
20260902211006 58 234 0.0 7.0 0.00 0.17 0.16 93 1012.9
20260902210008 58 176 0.0 0.0 0.00 0.17 0.16 93 1012.8
20260902205006 58 203 0.0 0.0 0.00 0.17 0.16 93 1012.8
20260902204006 58 197 0.0 1.0 0.00 0.17 0.16 93 1012.7
20260902203008 58 198 0.0 0.0 0.00 0.17 0.16 93 1012.9
20260902202006 58 215 0.0 3.0 0.00 0.17 0.16 93 1013.0
20260902201005 58 211 0.0 2.0 0.00 0.17 0.16 93 1013.0
20260902200009 59 230 0.0 3.0 0.00 0.17 0.16 93 1013.0
20260902195006 59 237 0.0 3.0 0.00 0.17 0.16 92 1013.0
20260902194005 59 216 0.0 3.0 0.00 0.17 0.16 92 1013.0
20260902193010 59 202 0.0 5.0 0.00 0.17 0.16 92 1013.0
20260902192007 59 216 0.0 3.0 0.00 0.17 0.16 92 1013.0
20260902191006 59 221 0.0 5.0 0.00 0.17 0.16 92 1013.0
20260902190020 59 231 0.0 6.0 0.00 0.17 0.16 92 1012.9
20260902185006 59 204 0.0 5.0 0.00 0.17 0.16 92 1012.7
20260902184006 59 230 0.0 3.0 0.00 0.17 0.16 92 1012.8
20260902183008 59 231 0.0 2.0 0.00 0.17 0.16 92 1012.7
20260902182005 60 219 1.0 6.0 0.00 0.17 0.16 92 1012.5
20260902181006 60 186 0.0 9.0 0.00 0.17 0.16 92 1012.5
20260902180008 60 198 0.0 3.0 0.00 0.17 0.16 92 1012.6
20260902175006 60 218 0.0 6.0 0.00 0.17 0.16 92 1012.5
20260902174006 60 190 0.0 3.0 0.00 0.17 0.16 92 1012.5
20260902173008 61 194 0.0 5.0 0.00 0.17 0.16 92 1012.5
20260902172006 61 205 0.0 3.0 0.00 0.17 0.16 92 1012.6
20260902171005 61 195 0.0 6.0 0.00 0.17 0.16 92 1012.5
20260902170009 61 192 1.0 5.0 0.00 0.17 0.16 92 1012.5
20260902165006 61 209 0.0 5.0 0.00 0.17 0.16 92 1012.6
20260902164006 61 171 0.0 5.0 0.00 0.17 0.16 92 1012.7
20260902163008 61 188 0.0 7.0 0.01 0.17 0.16 92 1012.6
20260902162006 61 195 0.0 3.0 0.01 0.17 0.16 91 1012.9
20260902161006 61 198 0.0 5.0 0.01 0.17 0.16 91 1012.9
20260902160009 61 186 0.0 5.0 0.01 0.17 0.16 91 1013.0
20260902155006 61 195 0.0 5.0 0.01 0.17 0.16 91 1012.9
20260902154005 61 212 0.0 3.0 0.01 0.17 0.16 91 1013.0
20260902153008 61 195 0.0 3.0 0.00 0.17 0.15 91 1013.0
20260902152006 61 192 0.0 3.0 0.00 0.17 0.15 91 1013.0
20260902151005 61 168 0.0 10.0 0.01 0.17 0.15 91 1013.0
20260902150009 61 202 0.0 9.0 0.01 0.17 0.15 91 1013.0
20260902145006 61 202 0.0 5.0 0.02 0.17 0.15 91 1013.1
20260902144006 62 231 0.0 3.0 0.02 0.17 0.15 91 1013.1
20260902143009 61 214 0.0 5.0 0.04 0.17 0.15 91 1013.1
20260902142005 61 230 1.0 14.0 0.04 0.17 0.15 90 1013.0
20260902141006 61 227 2.0 12.0 0.04 0.16 0.14 90 1013.0
20260902140009 62 226 2.0 15.0 0.04 0.16 0.14 90 1013.0
20260902135006 63 219 1.0 9.0 0.03 0.15 0.13 90 1013.0
20260902134006 63 246 0.0 7.0 0.12 0.15 0.13 89 1013.0
20260902133008 63 227 0.0 1.0 0.11 0.13 0.11 89 1013.0
20260902132006 63 220 0.0 3.0 0.11 0.13 0.11 88 1013.0
20260902131005 63 226 0.0 10.0 0.10 0.12 0.10 87 1013.0
20260902130008 63 237 0.0 10.0 0.10 0.12 0.10 85 1013.2
20260902125006 64 233 1.0 20.0 0.10 0.12 0.10 80 1013.3
20260902124005 67 245 6.0 20.0 0.02 0.03 0.02 76 1013.2
20260902123008 68 229 0.0 10.0 0.00 0.02 0.00 76 1013.0
20260902122006 68 200 0.0 12.0 0.00 0.02 0.00 76 1013.0
20260902121006 69 227 2.0 17.0 0.00 0.02 0.00 75 1013.1
20260902120008 69 225 1.0 12.0 0.00 0.02 0.00 75 1013.0
20260902115006 69 222 3.0 16.0 0.00 0.02 0.00 75 1013.0
20260902114006 69 234 2.0 17.0 0.00 0.02 0.00 74 1013.1
20260902113008 69 226 2.0 10.0 0.00 0.02 0.00 75 1013.2
20260902112006 69 219 2.0 14.0 0.00 0.02 0.00 74 1013.2
20260902111005 69 231 1.0 12.0 0.00 0.02 0.00 74 1013.3
20260902110008 69 217 2.0 9.0 0.00 0.02 0.00 73 1013.4
20260902105006 69 221 1.0 12.0 0.00 0.02 0.00 75 1013.4
20260902104006 69 209 0.0 12.0 0.00 0.02 0.00 75 1013.5
20260902103008 69 230 1.0 12.0 0.00 0.02 0.00 77 1013.5
20260902102006 68 208 0.0 12.0 0.00 0.02 0.00 79 1013.3
20260902101006 67 236 1.0 14.0 0.00 0.02 0.00 78 1013.3
20260902100008 66 228 1.0 9.0 0.00 0.02 0.00 80 1013.3
20260902095006 66 225 1.0 10.0 0.00 0.02 0.00 80 1013.4
20260902094006 66 218 1.0 12.0 0.00 0.02 0.00 80 1013.4
20260902093008 66 242 2.0 10.0 0.00 0.02 0.00 81 1013.4
20260902092007 66 229 2.0 13.0 0.00 0.02 0.00 80 1013.5
20260902091006 66 223 2.0 12.0 0.00 0.02 0.00 82 1013.4
20260902090008 66 241 0.0 12.0 0.00 0.02 0.00 84 1013.5
20260902085005 66 239 1.0 9.0 0.00 0.02 0.00 86 1013.5
20260902084006 65 209 0.0 9.0 0.00 0.02 0.00 87 1013.5
20260902083008 64 222 0.0 9.0 0.00 0.02 0.00 87 1013.5
20260902082006 64 191 0.0 12.0 0.00 0.02 0.00 89 1013.4
20260902081006 63 204 0.0 9.0 0.00 0.02 0.00 90 1013.5
20260902080008 63 198 0.0 9.0 0.00 0.02 0.00 90 1013.4
20260902075005 62 216 0.0 10.0 0.00 0.02 0.00 91 1013.3
20260902074006 62 213 0.0 7.0 0.00 0.02 0.00 92 1013.1
20260902073009 62 182 0.0 5.0 0.00 0.02 0.00 92 1013.1
20260902072005 61 179 0.0 3.0 0.00 0.02 0.00 92 1013.1
20260902071006 61 187 0.0 2.0 0.00 0.02 0.00 92 1013.1
20260902070008 61 182 0.0 3.0 0.00 0.02 0.00 93 1013.1
20260902065006 60 128 0.0 3.0 0.00 0.02 0.00 93 1013.1
20260902064005 60 164 0.0 6.0 0.00 0.02 0.00 93 1013.2
20260902063008 60 184 0.0 7.0 0.00 0.02 0.00 93 1013.1
20260902062006 60 185 0.0 3.0 0.00 0.02 0.00 93 1013.2
20260902061005 59 199 0.0 6.0 0.00 0.02 0.00 93 1013.1
20260902060008 59 213 0.0 3.0 0.00 0.02 0.00 93 1013.1
20260902055006 59 204 0.0 12.0 0.00 0.02 0.00 93 1013.1
20260902054005 59 191 0.0 13.0 0.00 0.02 0.00 93 1013.1
20260902053009 59 222 0.0 5.0 0.00 0.02 0.00 93 1013.0
20260902052006 58 221 1.0 6.0 0.00 0.02 0.00 93 1013.0
20260902051005 58 169 0.0 3.0 0.00 0.02 0.00 93 1013.0
20260902050009 58 217 0.0 2.0 0.00 0.02 0.00 93 1013.1
20260902045006 58 192 0.0 7.0 0.00 0.02 0.00 93 1013.0
20260902044006 58 207 0.0 6.0 0.00 0.02 0.00 93 1013.0
20260902043008 58 181 0.0 3.0 0.00 0.02 0.00 93 1013.1
20260902042006 57 150 0.0 2.0 0.00 0.02 0.00 92 1013.1
20260902041006 57 199 0.0 5.0 0.00 0.02 0.00 92 1013.1
20260902040010 57 162 0.0 3.0 0.00 0.02 0.00 93 1013.0
20260902035006 57 185 0.0 1.0 0.00 0.02 0.00 92 1013.1
20260902034006 56 172 0.0 1.0 0.00 0.02 0.00 92 1013.2
20260902033010 56 175 0.0 0.0 0.00 0.02 0.00 92 1013.3
20260902032006 55 191 0.0 1.0 0.00 0.02 0.00 92 1013.4
20260902031007 55 188 0.0 0.0 0.00 0.02 0.00 91 1013.5
20260902030008 55 181 0.0 2.0 0.00 0.02 0.00 91 1013.5
20260902025006 55 206 0.0 2.0 0.00 0.04 0.00 91 1013.5
20260902024006 55 210 0.0 2.0 0.00 0.04 0.00 91 1013.5
20260902023008 55 184 0.0 0.0 0.00 0.04 0.00 90 1013.4
20260902022005 56 222 0.0 1.0 0.00 0.04 0.00 90 1013.4
20260902021005 56 185 0.0 0.0 0.00 0.04 0.00 89 1013.4
20260902020008 56 206 0.0 2.0 0.00 0.04 0.00 89 1013.3
20260902015006 56 224 0.0 0.0 0.00 0.04 0.00 89 1013.3
20260902014006 57 189 0.0 0.0 0.00 0.04 0.00 89 1013.4
20260902013009 57 198 0.0 0.0 0.00 0.04 0.00 89 1013.4
20260902012006 58 230 0.0 3.0 0.00 0.04 0.00 89 1013.4
20260902011006 58 208 0.0 3.0 0.00 0.04 0.00 89 1013.4
20260902010009 58 224 0.0 3.0 0.00 0.04 0.00 89 1013.4
20260902005006 58 229 0.0 3.0 0.00 0.04 0.00 89 1013.4
20260902004006 58 227 0.0 5.0 0.00 0.04 0.00 89 1013.5
20260902003009 58 244 0.0 3.0 0.00 0.04 0.00 89 1013.5
20260902002005 58 230 0.0 3.0 0.00 0.04 0.00 89 1013.4
20260902001006 58 226 0.0 2.0 0.00 0.04 0.00 89 1013.5
20260902000008 58 226 0.0 3.0 0.00 0.04 0.00 89 1013.5
20260901235006 58 302 0.0 1.0 0.00 0.04 0.00 89 1013.6
20260901234006 58 300 0.0 6.0 0.00 0.04 0.00 89 1013.6
20260901233008 58 265 0.0 0.0 0.00 0.04 0.00 88 1013.6
20260901232006 58 253 0.0 5.0 0.00 0.04 0.00 88 1013.6
20260901231006 59 265 0.0 5.0 0.00 0.04 0.00 89 1013.6
20260901230008 59 276 0.0 2.0 0.00 0.04 0.00 89 1013.6
20260901225006 60 219 0.0 3.0 0.00 0.04 0.00 90 1013.4
20260901224006 60 222 0.0 6.0 0.02 0.04 0.00 90 1013.3
20260901223009 60 243 0.0 5.0 0.02 0.04 0.00 90 1013.2
20260901222006 60 201 0.0 7.0 0.02 0.04 0.00 90 1013.3
20260901221006 60 225 0.0 7.0 0.02 0.04 0.00 90 1013.1
20260901220008 61 214 0.0 2.0 0.02 0.04 0.00 89 1013.1
20260901215006 61 215 0.0 2.0 0.02 0.04 0.04 89 1013.2
20260901214006 61 237 0.0 1.0 0.01 0.03 0.03 89 1013.2
20260901213009 61 226 0.0 1.0 0.00 0.02 0.02 89 1013.0